FW2545 Weather Reports


time (UTC)temp
C
wind
direction
speed
KPH
gust
KPH
rain 1hr
cm
rain 24hr
cm
rain mn
cm
humidity
%
barometer
mb
20260507223104 23 313 14.5 30.6 0.00 0.00 0.00 30 1017.5
20260507221532 23 302 11.3 27.4 0.00 0.00 0.00 31 1017.7
20260507220032 23 326 11.3 24.1 0.00 0.00 0.00 31 1017.9
20260507214530 23 316 11.3 29.0 0.00 0.00 0.00 33 1018.1
20260507213031 23 323 9.7 19.3 0.00 0.00 0.00 33 1018.2
20260507211546 23 328 11.3 27.4 0.00 0.00 0.00 33 1018.3
20260507210031 23 337 9.7 22.5 0.00 0.00 0.00 33 1018.5
20260507204532 23 344 4.8 16.1 0.00 0.00 0.00 34 1018.6
20260507203032 23 342 6.4 14.5 0.00 0.00 0.00 34 1018.9
20260507201607 23 311 6.4 19.3 0.00 0.00 0.00 36 1019.0
20260507194531 23 360 6.4 17.7 0.00 0.00 0.00 39 1019.2
20260507193031 22 43 6.4 17.7 0.00 0.00 0.00 41 1019.4
20260507191530 21 343 3.2 14.5 0.00 0.00 0.00 43 1019.5
20260507190029 21 332 6.4 19.3 0.00 0.00 0.00 45 1019.6
20260507181532 17 343 4.8 17.7 0.00 0.00 0.00 56 1020.0
20260507173029 16 351 6.4 14.5 0.00 0.00 0.00 63 1020.3
20260507171533 15 1 8.0 16.1 0.00 0.00 0.00 64 1020.5
20260507170032 15 345 9.7 19.3 0.00 0.00 0.00 66 1020.5
20260507164528 15 339 8.0 16.1 0.00 0.00 0.00 69 1020.4
20260507161532 14 280 9.7 20.9 0.00 0.00 0.00 73 1020.3
20260507160032 13 284 9.7 20.9 0.00 0.00 0.00 77 1020.7
20260507154531 12 244 4.8 16.1 0.00 0.00 0.00 81 1020.9
20260507153031 11 228 4.8 9.7 0.00 0.00 0.00 84 1021.0
20260507151530 11 241 3.2 16.1 0.00 0.00 0.00 87 1021.1
20260507150038 10 244 6.4 12.9 0.00 0.00 0.00 89 1021.0
20260507144532 9 227 8.0 14.5 0.00 0.00 0.00 91 1021.0
20260507143030 7 247 4.8 11.3 0.00 0.00 0.00 92 1020.9
20260507141530 6 256 3.2 9.7 0.00 0.00 0.00 91 1020.8
20260507140031 6 202 0.0 3.2 0.00 0.00 0.00 90 1020.6
20260507134533 5 245 1.6 6.4 0.00 0.00 0.00 89 1020.5
20260507133106 6 314 1.6 6.4 0.00 0.00 0.00 89 1020.4
20260507131614 7 21 0.0 6.4 0.00 0.00 0.00 89 1020.4
20260507130031 8 22 3.2 9.7 0.00 0.00 0.00 90 1020.3
20260507124604 8 20 6.4 11.3 0.00 0.00 0.00 90 1020.4
20260507121531 7 17 4.8 12.9 0.00 0.00 0.00 88 1020.1
20260507120029 7 24 1.6 6.4 0.00 0.00 0.00 87 1020.1
20260507114534 7 318 0.0 4.8 0.00 0.00 0.00 86 1020.0
20260507111530 9 37 1.6 8.0 0.00 0.00 0.00 85 1019.8
20260507110031 9 86 4.8 9.7 0.00 0.00 0.00 84 1019.7
20260507104530 9 351 4.8 12.9 0.00 0.00 0.00 83 1019.6
20260507103145 10 31 4.8 14.5 0.00 0.00 0.00 82 1019.5
20260507100042 11 45 4.8 12.9 0.00 0.00 0.00 78 1019.6
20260507094530 12 31 4.8 9.7 0.00 0.00 0.00 75 1019.7
20260507093033 12 56 3.2 8.0 0.00 0.00 0.00 74 1019.7
20260507091529 12 307 6.4 12.9 0.00 0.00 0.00 74 1019.7
20260507090144 12 329 4.8 9.7 0.00 0.00 0.00 76 1019.7
20260507084529 12 338 4.8 16.1 0.00 0.00 0.00 79 1019.7
20260507083034 12 335 8.0 16.1 0.00 0.00 0.00 80 1019.8
20260507081533 12 344 6.4 17.7 0.00 0.00 0.00 80 1019.8
20260507080030 12 349 6.4 17.7 0.00 0.00 0.00 81 1019.9
20260507074528 11 26 3.2 12.9 0.00 0.00 0.00 82 1019.9
20260507073103 11 23 4.8 11.3 0.00 0.00 0.00 81 1019.7
20260507071528 11 269 0.0 6.4 0.00 0.00 0.00 79 1019.7
20260507064531 12 22 0.0 1.6 0.00 0.00 0.00 73 1020.0
20260507063031 13 53 3.2 8.0 0.00 0.00 0.00 70 1020.0
20260507061530 13 351 1.6 11.3 0.00 0.00 0.00 68 1020.1
20260507060031 14 340 6.4 14.5 0.00 0.00 0.00 66 1020.2
20260507054606 14 351 8.0 17.7 0.00 0.00 0.00 65 1020.3
20260507053030 14 7 6.4 14.5 0.00 0.00 0.00 62 1020.4
20260507051529 13 306 4.8 11.3 0.00 0.00 0.00 61 1020.4
20260507050028 14 261 1.6 8.0 0.00 0.00 0.00 59 1020.4
20260507044529 15 250 4.8 12.9 0.00 0.00 0.00 57 1020.3
20260507041528 16 248 11.3 22.5 0.00 0.00 0.00 53 1020.2
20260507040039 17 249 11.3 20.9 0.00 0.00 0.00 51 1020.0
20260507033108 17 258 16.1 27.4 0.00 0.00 0.00 49 1019.7
20260507031530 18 254 16.1 32.2 0.00 0.00 0.00 48 1019.6
20260507030031 18 264 16.1 32.2 0.00 0.00 0.00 48 1019.5
20260507024529 18 264 17.7 35.4 0.00 0.00 0.00 48 1019.4
20260507023033 18 266 11.3 24.1 0.00 0.00 0.00 49 1019.5
20260507014529 18 317 6.4 14.5 0.00 0.00 0.00 50 1019.4
20260507013030 19 305 8.0 19.3 0.00 0.00 0.00 49 1019.3
20260507011530 20 297 11.3 22.5 0.00 0.00 0.00 47 1019.1
20260507010031 20 290 12.9 30.6 0.00 0.00 0.00 46 1019.0
20260507003104 21 275 12.9 27.4 0.00 0.00 0.00 45 1018.9
20260507000031 22 283 11.3 22.5 0.00 0.00 0.00 44 1018.6
20260506234531 22 300 9.7 22.5 0.00 0.00 0.00 44 1018.6
20260506233030 23 298 8.0 24.1 0.00 0.00 0.00 42 1018.7
20260506231530 23 282 9.7 24.1 0.00 0.00 0.00 42 1018.7
20260506230031 24 281 11.3 22.5 0.00 0.00 0.00 41 1018.7
20260506224529 25 273 14.5 29.0 0.00 0.00 0.00 41 1018.7